sat.trackr.live / text

‹ back to catalog

2025-284A

NORAD 66913 · 2025-284A

PAYLOAD ACTIVE UNKNOWN

§ Identity

Operator
Country
PRC
Launch date
2025-12-05
Launch site
JSC
Launch vehicle
Mass (kg)
RCS (m²)

External: N2YO · Heavens-Above · Gunter

§ Orbital elements

Epoch: 2026-05-25T04:43:40.403424Z

Period
103.05 min
Inclination
80.4047°
Eccentricity
0.0010564
Mean motion
13.97336240 rev/d
Perigee alt
895.3 km
Apogee alt
910.7 km
Semi-major
7,281.2 km
B*
8.6617e-5
RAAN
313.3366°
Arg perigee
302.1331°
Mean anomaly
57.8804°
Rev number
2,427

§ Raw data

2025-284A1 66913U 25284A   26145.19699541  .00000131  00000+0  86617-4 0  99942 66913  80.4047 313.3366 0010564 302.1331  57.8804 13.97336240 24279

JSON: /api/v1/satellites/66913 · /tle

For live sub-satellite position, see the globe view (requires WebGL).

§ Visibility from observer

Set your observer location to see the next 7 days of passes ≥ 10°. The values pass through the URL so the page stays shareable.

No JS? Fill the form by hand. The geolocation button needs JavaScript.